Hourly Weather Ludwigshafen am Rhein

Today, 20 June, Sunday

Time Temperature Precipitation Wind Pressure Humidity
00:00 +26°C° 0.6 mm 3 mps 748 mmHg 77%
01:00 +26°C° 0 mm 3 mps 748 mmHg 77%
02:00 +25°C° 0.4 mm 3 mps 748 mmHg 81%
03:00 +24°C° 0.4 mm 3 mps 748 mmHg 85%
04:00 +23°C° 0.4 mm 2 mps 749 mmHg 89%
05:00 +23°C° 0 mm 2 mps 749 mmHg 86%
06:00 +22°C° 0 mm 3 mps 750 mmHg 83%
07:00 +22°C° 0 mm 3 mps 750 mmHg 79%
08:00 +25°C° 0 mm 3 mps 750 mmHg 71%
09:00 +26°C° 0 mm 3 mps 750 mmHg 63%
10:00 +27°C° 0 mm 2 mps 750 mmHg 55%
11:00 +27°C° 0 mm 2 mps 750 mmHg 58%
12:00 +26°C° 0 mm 1 mps 749 mmHg 62%
13:00 +26°C° 0 mm 1 mps 749 mmHg 65%
14:00 +27°C° 0 mm 1 mps 749 mmHg 61%
15:00 +28°C° 0 mm 2 mps 748 mmHg 56%
16:00 +29°C° 0 mm 2 mps 747 mmHg 51%
17:00 +27°C° 0.2 mm 2 mps 747 mmHg 61%
18:00 +26°C° 0.2 mm 2 mps 747 mmHg 71%
19:00 +24°C° 0.2 mm 1 mps 746 mmHg 80%
20:00 +23°C° 5.3 mm 2 mps 746 mmHg 86%
21:00 +21°C° 5.3 mm 2 mps 747 mmHg 91%
22:00 +20°C° 5.3 mm 3 mps 747 mmHg 97%
23:00 +19°C° 0.6 mm 2 mps 747 mmHg 97%

Tomorrow, 21 June, Monday

Time Temperature Precipitation Wind Pressure Humidity
00:00 +19°C° 0.6 mm 2 mps 746 mmHg 96%
01:00 +18°C° 0.6 mm 2 mps 746 mmHg 96%
02:00 +18°C° 0 mm 2 mps 747 mmHg 96%
03:00 +18°C° 0 mm 2 mps 747 mmHg 96%
04:00 +17°C° 0 mm 2 mps 747 mmHg 95%
05:00 +18°C° 0 mm 2 mps 748 mmHg 93%
06:00 +19°C° 0 mm 2 mps 748 mmHg 91%
07:00 +20°C° 0 mm 2 mps 748 mmHg 89%
08:00 +21°C° 0 mm 3 mps 748 mmHg 79%
09:00 +24°C° 0 mm 3 mps 748 mmHg 70%
10:00 +25°C° 0 mm 3 mps 748 mmHg 60%
11:00 +26°C° 0 mm 3 mps 748 mmHg 56%
12:00 +27°C° 0 mm 3 mps 748 mmHg 52%
13:00 +28°C° 0 mm 3 mps 748 mmHg 48%
14:00 +29°C° 0 mm 2 mps 748 mmHg 47%
15:00 +29°C° 0 mm 2 mps 748 mmHg 46%
16:00 +29°C° 0 mm 2 mps 748 mmHg 46%
17:00 +27°C° 0 mm 2 mps 748 mmHg 53%
18:00 +26°C° 0 mm 2 mps 748 mmHg 60%
19:00 +24°C° 0 mm 1 mps 748 mmHg 67%
20:00 +23°C° 0 mm 2 mps 748 mmHg 69%
21:00 +21°C° 0 mm 2 mps 749 mmHg 71%
22:00 +20°C° 0 mm 2 mps 749 mmHg 73%
23:00 +19°C° 1 mm 2 mps 749 mmHg 81%

Day after tomorrow, 22 June, Tuesday

Time Temperature Precipitation Wind Pressure Humidity
00:00 +19°C° 1 mm 2 mps 749 mmHg 88%
01:00 +18°C° 1 mm 2 mps 749 mmHg 95%
02:00 +17°C° 0 mm 2 mps 750 mmHg 95%
03:00 +18°C° 0 mm 1 mps 750 mmHg 95%
04:00 +18°C° 0 mm 1 mps 750 mmHg 96%
05:00 +19°C° 0 mm 1 mps 750 mmHg 94%
06:00 +19°C° 0 mm 1 mps 750 mmHg 92%
07:00 +20°C° 0 mm 1 mps 750 mmHg 91%
08:00 +21°C° 0.1 mm 1 mps 750 mmHg 85%
09:00 +22°C° 0.1 mm 1 mps 750 mmHg 79%
10:00 +23°C° 0.1 mm 2 mps 750 mmHg 73%
11:00 +24°C° 0.1 mm 2 mps 750 mmHg 70%
12:00 +25°C° 0.1 mm 2 mps 750 mmHg 68%
13:00 +25°C° 0.1 mm 2 mps 750 mmHg 66%
14:00 +24°C° 3.7 mm 2 mps 750 mmHg 75%
15:00 +21°C° 3.7 mm 3 mps 750 mmHg 84%
16:00 +20°C° 3.7 mm 3 mps 750 mmHg 93%
17:00 +20°C° 2.8 mm 3 mps 750 mmHg 93%
18:00 +20°C° 2.8 mm 2 mps 751 mmHg 93%
19:00 +19°C° 2.8 mm 2 mps 751 mmHg 92%
20:00 +19°C° 0 mm 2 mps 752 mmHg 93%
21:00 +19°C° 0 mm 1 mps 752 mmHg 94%
22:00 +18°C° 0 mm 1 mps 753 mmHg 95%
23:00 +18°C° 0 mm 1 mps 753 mmHg 95%

23 June, Wednesday

Time Temperature Precipitation Wind Pressure Humidity
00:00 +18°C° 0 mm 1 mps 753 mmHg 95%
01:00 +18°C° 0 mm 1 mps 753 mmHg 95%
02:00 +18°C° 0 mm 1 mps 753 mmHg 95%
03:00 +16°C° 0 mm 1 mps 753 mmHg 95%
04:00 +16°C° 0 mm 1 mps 753 mmHg 96%
05:00 +18°C° 0 mm 1 mps 754 mmHg 94%
06:00 +18°C° 0 mm 1 mps 754 mmHg 92%
07:00 +18°C° 0 mm 1 mps 754 mmHg 90%
08:00 +19°C° 0 mm 1 mps 754 mmHg 85%
09:00 +20°C° 0 mm 1 mps 754 mmHg 81%
10:00 +21°C° 0 mm 1 mps 755 mmHg 77%
11:00 +22°C° 0 mm 1 mps 754 mmHg 71%
12:00 +24°C° 0 mm 1 mps 754 mmHg 66%
13:00 +25°C° 0 mm 1 mps 754 mmHg 60%
14:00 +25°C° 0 mm 1 mps 754 mmHg 61%
15:00 +25°C° 0 mm 2 mps 754 mmHg 61%
16:00 +25°C° 0 mm 2 mps 754 mmHg 62%
17:00 +24°C° 0 mm 2 mps 754 mmHg 66%
18:00 +23°C° 0 mm 2 mps 754 mmHg 71%
19:00 +23°C° 0 mm 2 mps 754 mmHg 75%
20:00 +20°C° 0.1 mm 2 mps 754 mmHg 79%
21:00 +19°C° 0.1 mm 2 mps 754 mmHg 82%
22:00 +18°C° 0.1 mm 2 mps 754 mmHg 85%
23:00 +18°C° 0.8 mm 2 mps 755 mmHg 88%

24 June, Thursday

Time Temperature Precipitation Wind Pressure Humidity
00:00 +17°C° 0.8 mm 2 mps 755 mmHg 91%
01:00 +18°C° 0.8 mm 1 mps 755 mmHg 94%
02:00 +16°C° 0.9 mm 1 mps 755 mmHg 94%
03:00 +16°C° 0.9 mm 1 mps 755 mmHg 95%
04:00 +16°C° 0.9 mm 1 mps 755 mmHg 96%
05:00 +16°C° 0.7 mm 1 mps 755 mmHg 96%
06:00 +16°C° 0.7 mm 1 mps 755 mmHg 95%
07:00 +18°C° 0.7 mm 1 mps 756 mmHg 95%
08:00 +18°C° 1 mm 1 mps 756 mmHg 95%
09:00 +18°C° 1 mm 1 mps 756 mmHg 95%
10:00 +18°C° 1 mm 1 mps 756 mmHg 95%
11:00 +18°C° 0.2 mm 1 mps 756 mmHg 94%
12:00 +19°C° 0.2 mm 1 mps 756 mmHg 93%
13:00 +19°C° 0.2 mm 1 mps 756 mmHg 92%
14:00 +19°C° 0.4 mm 1 mps 756 mmHg 92%
15:00 +19°C° 0.4 mm 1 mps 756 mmHg 93%
16:00 +17°C° 0.4 mm 0 mps 756 mmHg 93%
17:00 +19°C° 0.4 mm 1 mps 756 mmHg 94%
18:00 +19°C° 0.4 mm 1 mps 756 mmHg 95%
19:00 +19°C° 0.4 mm 1 mps 756 mmHg 96%
20:00 +18°C° 0.1 mm 1 mps 756 mmHg 96%
21:00 +18°C° 0.1 mm 1 mps 756 mmHg 96%
22:00 +18°C° 0.1 mm 1 mps 756 mmHg 96%
23:00 +16°C° 0.2 mm 1 mps 756 mmHg 96%

25 June, Friday

Time Temperature Precipitation Wind Pressure Humidity
00:00 +16°C° 0.2 mm 1 mps 756 mmHg 96%
01:00 +16°C° 0.2 mm 1 mps 756 mmHg 95%
02:00 +16°C° 0.1 mm 1 mps 756 mmHg 95%
03:00 +15°C° 0.1 mm 1 mps 756 mmHg 95%
04:00 +15°C° 0.1 mm 1 mps 756 mmHg 95%
05:00 +15°C° 0 mm 1 mps 756 mmHg 94%
06:00 +16°C° 0 mm 1 mps 757 mmHg 93%
07:00 +16°C° 0 mm 1 mps 757 mmHg 91%
08:00 +18°C° 0 mm 1 mps 757 mmHg 87%
09:00 +19°C° 0 mm 1 mps 757 mmHg 83%
10:00 +20°C° 0 mm 1 mps 757 mmHg 78%
11:00 +20°C° 0.2 mm 2 mps 757 mmHg 72%
12:00 +21°C° 0.2 mm 2 mps 757 mmHg 65%
13:00 +24°C° 0.2 mm 2 mps 757 mmHg 59%
14:00 +24°C° 0.1 mm 2 mps 757 mmHg 59%
15:00 +24°C° 0.1 mm 2 mps 757 mmHg 59%
16:00 +24°C° 0.1 mm 2 mps 756 mmHg 58%
17:00 +23°C° 0 mm 2 mps 756 mmHg 62%
18:00 +23°C° 0 mm 1 mps 756 mmHg 66%
19:00 +22°C° 0 mm 1 mps 756 mmHg 70%
20:00 +21°C° 0 mm 1 mps 756 mmHg 73%
21:00 +20°C° 0 mm 1 mps 756 mmHg 76%
22:00 +16°C° 0 mm 0 mps 757 mmHg 79%
23:00 +16°C° 0 mm 0 mps 757 mmHg 80%
Show more

We Need Your Consent

Meteoprog and our Service Providers may store and access personal data such as cookies, device identifiers or other similar technologies on your device and process such data to personalise content and ads, as well as provide social media features and to analyse the traffic.

  • Store and/or access information on your device

    Cookies, device identifiers or other information can be stored or accessed on your device for the purposes indicated above.

  • Personalised ads and content, ad and content measurement, audience insights, and products development

    Ads and content can be personalised based on a profile. More data can be added to better personalise ads and content. Ad and content performance can be measured. Insights about the audience who saw the ads and content can be derived. Such data can be used to develop or improve user’s experience, systems and software.

By clicking ‘I Agree’ you will allow the use of indicated cookies, device identifiers, web beacons or other similar technologies. Your settings can be changed in the browser on your device.

For certain purposes, legitimate interests may be relied on, rather than consent. You can read more about this in our Privacy and Cookie Policy.